Location: Unspecified
(45.3999°N, 88.1269°W)
Time: 02:46:41
(UTC-05:00)

CZ-3 Stage 3 - Visible Passes

Search period start: 17 October 2017 00:00
Search period end: 27 October 2017 00:00
Orbit: 421 x 34777 km, 31.0° (Epoch: 16 October)

Date Brightness Start Highest point End Pass type
(mag) Time Alt. Az. Time Alt. Az. Time Alt. Az.
17 Oct 4.6 05:35:59 12° SSW 05:40:01 28° SSE 05:54:58 10° ESE visible
20 Oct 4.5 05:27:10 15° SSW 05:30:44 28° SSE 05:45:17 10° ESE visible
23 Oct 4.4 05:18:20 17° SSW 05:21:25 28° SSE 05:35:36 10° ESE visible
26 Oct 4.4 05:09:29 20° SSW 05:12:07 28° SSE 05:25:54 10° ESE visible
